Temp
24 25 29 32 33 36 34 34 35 33 33 33 33 32 28 27 26 23 20 20 20 20 21 22 22 22 21 22 22 22 21 21 22 21 21 21 21 21 21 21 21 21 21 21 21 21 21 21 21
29 30 30 34 36 37 35 36 34 32 32 33 32 31 30 25 23 20 20 20 20 20 21 22 22 22 22 22 22 22 21 21 22 22 21 21 21 21 21 21 21 21 21 21 21 21 21 21 21
27 30 34 38 37 36 35 35 34 32 32 32 31 31 28 24 23 20 20 20 20 21 21 21 22 22 22 22 22 22 22 21 21 22 22 21 21 21 21 21 21 21 21 21 21 21 21 21 22
31 34 35 37 35 36 36 35 35 34 34 32 32 27 24 24 24 20 20 20 21 21 22 22 22 21 22 22 22 22 22 21 22 22 21 21 21 21 21 21 21 21 21 21 21 21 21 21 22
33 36 36 37 35 35 35 35 33 34 32 30 31 27 23 24 21 20 20 20 21 22 22 21 21 21 22 21 21 22 21 22 22 21 21 21 21 21 21 21 21 21 22 22 22 22 22 22 23
35 39 38 37 36 36 35 35 34 33 32 32 29 26 22 23 23 22 22 22 23 22 22 22 22 22 22 21 21 21 21 21 21 21 21 21 21 21 21 21 21 22 22 23 23 23 23 23 23
35 38 37 38 37 35 35 36 35 32 30 30 30 25 21 23 23 22 22 22 21 21 22 21 22 21 21 21 21 21 21 21 21 21 21 21 21 22 22 22 21 22 22 23 23 24 24 24 24
39 39 39 38 37 34 35 36 36 32 31 32 31 25 22 22 23 21 22 22 22 21 21 21 22 22 22 22 21 21 22 21 21 22 23 23 23 23 23 23 23 23 23 22 23 24 24 25 25
40 39 37 37 37 35 36 35 34 34 30 29 30 28 24 23 23 23 22 22 21 21 21 21 21 22 22 22 22 22 23 23 24 24 24 24 26 25 24 23 24 23 23 23 23 24 24 25 25
39 39 37 38 37 36 36 35 34 34 31 27 27 25 25 24 24 24 24 22 21 20 20 21 21 22 24 24 23 24 24 25 25 25 25 26 26 25 26 24 24 24 24 24 25 25 25 26 27
41 39 39 38 38 37 36 35 35 34 32 29 26 24 24 24 24 25 24 21 21 22 23 22 22 24 26 25 24 24 26 26 24 23 24 25 25 25 25 25 25 24 25 25 24 24 26 27 27
39 39 39 38 38 37 36 36 34 35 33 32 28 26 25 24 23 25 24 24 23 25 25 24 25 25 24 23 24 25 26 26 25 24 23 24 24 26 26 26 26 26 25 26 26 27 26 26 26
39 39 39 38 37 37 37 35 33 32 31 31 28 27 26 26 26 26 25 24 25 24 26 26 25 23 22 23 24 25 26 26 26 26 24 25 24 24 24 26 26 26 26 26 26 26 26 26 27
40 39 38 38 37 37 35 34 34 32 31 29 27 27 26 27 26 26 26 25 25 26 25 26 24 22 23 24 22 24 25 26 26 26 25 24 24 23 23 24 26 27 26 26 26 25 25 26 27
40 38 38 38 38 37 37 36 33 32 31 28 27 26 26 26 27 27 27 25 26 26 27 27 25 24 24 23 23 24 26 26 26 26 25 24 24 24 24 26 25 27 26 24 26 25 27 27 27
40 40 38 38 39 37 38 34 34 33 31 30 29 28 27 27 27 27 26 26 26 27 27 27 26 26 24 24 24 25 26 26 26 27 27 26 25 25 25 26 27 25 24 25 26 27 27 27 27
38 32 36 38 39 39 38 36 35 35 34 32 31 30 30 30 28 27 26 26 26 28 27 26 26 26 25 24 24 25 25 25 27 27 27 27 25 25 25 26 26 24 24 25 26 26 27 27 27
33 36 40 38 39 39 39 37 36 36 36 34 33 32 32 31 31 30 28 27 26 27 27 26 26 25 25 25 24 25 26 26 27 27 27 26 26 25 25 26 26 24 26 26 26 25 26 26 27
41 39 40 40 40 39 39 38 37 36 37 36 35 34 33 33 32 30 30 29 28 27 26 26 25 25 24 24 25 26 27 27 27 27 27 26 26 26 25 27 27 26 25 26 25 25 26 27 28
40 40 40 40 40 39 39 39 39 37 37 37 36 35 35 35 34 31 30 29 29 28 27 26 25 24 24 24 25 26 27 28 28 27 27 26 25 25 25 25 26 26 26 25 24 24 26 28 28
40 40 40 39 40 40 40 39 39 39 39 39 38 37 36 36 34 33 30 29 29 28 27 26 25 25 24 24 25 25 25 25 26 27 27 27 26 25 25 25 25 24 24 27 25 25 25 27 28
40 41 40 40 39 39 40 36 39 39 39 39 39 38 37 36 36 34 32 30 30 29 28 27 25 24 24 24 25 26 27 27 28 29 29 28 26 26 26 25 25 25 25 26 26 25 25 26 27
40 42 40 40 39 40 40 39 40 40 39 39 39 39 39 37 37 36 33 31 31 30 29 28 26 25 25 24 24 26 25 27 27 28 28 27 26 25 26 25 25 24 24 25 24 24 24 25 26
41 40 40 40 40 39 40 40 40 40 40 40 40 40 39 39 38 37 35 33 32 31 30 29 26 25 24 25 24 24 26 26 27 28 28 28 28 28 28 26 25 24 24 24 24 24 24 24 24
40 39 37 37 38 39 41 40 40 42 42 42 41 41 41 40 39 38 36 34 33 32 31 30 28 25 25 25 25 24 24 25 25 25 27 27 28 29 29 26 24 24 24 23 23 23 23 23 23
39 39 38 36 38 39 40 39 41 43 43 43 43 42 42 41 40 39 38 36 34 33 32 31 29 27 26 26 25 25 24 25 25 25 26 27 28 29 27 25 25 24 24 23 22 22 23 23 22
39 38 41 40 41 40 40 41 42 43 42 42 43 43 42 42 41 40 39 37 35 34 33 32 31 28 27 27 26 25 24 24 27 26 26 26 26 26 26 25 24 24 24 24 23 24 22 21 21
40 41 39 40 38 38 40 40 40 41 42 43 42 42 42 42 42 41 40 38 36 35 34 32 31 30 28 28 27 26 26 25 25 24 25 25 25 24 24 23 23 23 23 23 22 22 22 21 21
39 40 40 41 40 39 39 40 43 42 42 42 42 42 42 42 42 42 41 39 37 36 35 34 32 31 29 28 28 27 27 26 26 26 26 25 24 23 22 22 22 22 22 21 21 21 22 22 22
41 40 40 39 38 40 41 41 44 43 43 42 42 42 42 42 43 42 41 40 38 36 36 35 33 32 30 29 28 27 27 27 27 26 24 23 22 22 22 22 21 21 21 22 22 22 22 22 21
Height
760 760 757 751 761 740 761 761 744 761 763 757 758 762 787 790 802 826 818 818 821 822 824 825 826 826 826 828 828 830 830 830 832 832 832 833 834 835 835 835 836 837 837 838 839 840 840 840 841
758 757 755 742 751 750 765 745 761 767 766 761 766 773 782 805 804 814 821 824 824 824 825 827 828 829 829 830 831 833 833 833 834 834 835 835 837 837 837 838 838 838 840 840 841 841 842 842 842
757 755 749 731 747 764 771 758 761 767 765 768 775 773 790 809 811 817 822 825 825 827 829 830 831 831 832 833 834 835 835 836 836 836 836 837 838 839 839 840 841 841 841 842 843 843 843 843 842
756 748 737 748 770 760 757 757 756 763 759 769 770 797 804 807 811 820 824 825 828 829 832 833 834 835 835 835 836 837 837 837 837 837 838 839 840 841 841 842 842 843 843 843 843 844 844 844 843
752 740 750 756 768 761 756 755 762 765 772 779 775 803 810 813 819 823 826 827 830 830 834 835 836 837 837 838 838 838 839 839 839 840 841 841 842 843 844 844 844 844 844 844 843 844 844 844 844
752 727 749 762 768 760 757 754 762 770 771 775 788 804 817 819 821 826 829 832 833 835 836 838 838 839 840 840 840 841 842 842 842 843 843 844 845 845 846 845 845 845 845 845 845 845 845 845 844
750 742 756 755 761 769 764 748 758 777 785 787 784 812 820 821 823 827 830 833 835 836 836 838 841 841 842 843 845 845 845 844 844 844 846 846 846 846 846 846 847 846 846 846 845 845 844 845 844
733 727 746 747 758 776 760 757 754 775 786 779 784 814 823 822 824 829 832 834 838 839 839 841 842 844 846 847 847 847 846 847 846 846 846 846 848 848 848 848 848 847 847 846 846 845 845 844 843
724 742 762 759 758 768 756 766 764 767 787 789 789 799 814 821 824 829 834 836 839 840 841 843 845 847 848 849 848 848 847 848 848 848 847 846 848 848 848 848 848 848 848 847 846 845 844 843 841
733 744 758 744 749 763 760 761 770 771 786 800 801 810 816 820 824 828 832 837 839 842 843 846 845 847 849 850 849 850 850 849 850 850 848 847 849 849 849 849 848 848 847 846 845 844 843 840 838
725 750 745 749 748 750 763 767 762 769 782 795 807 813 818 822 826 827 832 838 841 844 846 847 848 847 848 850 850 850 849 850 853 852 850 849 849 849 848 848 848 847 845 845 843 842 840 841 841
747 740 745 751 751 754 765 760 770 766 774 783 800 810 818 823 828 828 833 837 840 842 845 848 849 849 850 852 851 849 850 851 850 852 851 851 850 850 850 849 849 848 847 846 844 840 841 843 842
746 748 747 750 754 759 758 769 777 782 785 791 802 810 816 820 824 826 831 835 838 842 842 844 848 850 853 853 851 848 851 851 853 852 853 854 853 852 851 850 849 847 846 846 846 845 844 842 839
737 745 751 753 760 760 770 774 774 787 789 799 805 810 815 818 823 825 829 834 836 838 842 843 847 852 854 853 853 854 854 854 853 853 853 853 852 852 850 850 848 846 845 846 846 846 844 842 838
737 754 751 755 754 762 755 774 787 785 791 800 807 812 816 819 820 822 825 832 835 837 838 842 846 851 852 853 854 854 853 853 853 852 852 852 852 853 851 848 848 845 846 845 844 844 841 839 838
739 737 763 754 750 756 755 793 782 782 790 798 802 808 813 818 818 822 826 830 832 833 837 841 844 847 850 852 853 853 853 853 852 851 851 851 851 850 849 848 846 844 844 843 842 842 840 839 837
750 796 774 762 747 752 754 782 776 775 780 791 795 800 804 807 813 819 824 827 829 830 834 839 843 845 848 851 852 853 853 853 852 851 850 850 850 850 848 847 846 845 845 843 841 840 839 838 838
791 776 749 762 754 754 755 771 773 772 773 781 786 792 797 800 804 809 816 821 827 829 834 838 841 843 846 848 850 851 851 851 850 849 848 849 848 849 848 847 845 845 843 841 841 840 839 838 836
734 749 752 746 745 753 753 761 768 768 768 774 778 784 788 792 798 806 811 816 822 826 830 834 838 841 844 846 847 848 847 847 847 847 848 848 847 846 846 844 843 842 841 841 841 841 839 836 835
738 748 751 747 743 752 752 757 754 762 764 765 771 777 781 784 791 801 808 813 816 820 826 831 834 837 840 842 844 845 845 845 845 845 846 846 846 846 845 844 843 841 841 840 841 841 837 834 833
740 745 750 756 748 743 750 761 756 752 754 755 760 766 772 778 786 795 803 808 813 817 821 826 830 833 836 839 841 843 845 845 845 844 843 843 844 844 844 844 843 842 841 838 839 839 838 834 832
750 728 742 751 760 770 744 795 760 751 756 756 758 761 766 771 778 788 797 803 807 811 816 821 825 829 833 836 838 839 840 840 839 839 839 840 842 842 842 842 841 841 839 838 837 836 835 834 831
742 723 741 747 758 755 753 769 754 744 760 755 750 754 756 764 771 778 789 796 801 806 811 815 820 825 829 831 834 836 838 838 838 839 839 839 840 838 839 839 839 839 838 837 836 835 834 833 830
721 740 746 748 753 775 752 755 758 750 749 745 741 743 749 755 763 770 780 788 796 801 806 811 816 821 825 829 831 833 834 836 835 835 835 834 834 834 834 835 837 837 835 834 833 831 831 828 827
732 752 783 789 781 777 734 756 748 726 725 727 734 736 739 746 755 763 771 780 788 794 799 805 811 816 820 823 826 828 830 832 833 834 834 833 831 829 829 829 831 833 833 831 830 828 826 825 824
745 748 768 801 782 763 742 768 744 712 709 714 715 722 730 738 744 754 762 772 780 787 793 799 804 810 814 817 820 823 826 828 828 829 830 829 828 826 828 827 829 828 828 828 826 825 823 822 820
739 756 726 746 735 757 746 738 718 711 718 717 717 715 724 729 735 745 753 764 772 780 786 792 798 804 809 812 815 818 821 822 824 825 826 827 828 827 827 826 826 827 827 825 824 821 820 819 817
720 721 758 741 777 777 744 750 748 732 725 714 719 717 716 721 727 735 746 755 765 773 780 787 792 798 803 807 810 813 816 819 821 822 823 824 825 825 825 825 825 825 824 823 821 820 818 816 814
729 731 732 727 738 758 769 747 704 716 710 715 713 711 713 716 720 727 737 748 759 766 773 780 787 792 798 803 806 810 813 815 817 818 819 820 821 822 823 825 824 824 823 822 821 819 817 814 812
704 722 722 745 758 732 733 729 683 696 702 708 709 709 709 713 716 722 731 741 752 760 767 774 780 787 793 799 803 806 810 812 814 816 817 820 821 823 823 824 823 823 822 821 820 818 816 813 810
Wind_Speed
8 8 10 10 8 4 11 12 13 16 11 13 15 16 18 11 5 6 17 17 17 14 15 18 20 19 18 17 18 17 16 15 14 13 14 15 15 16 16 16 15 15 16 17 16 15 15 15 14
9 8 10 8 7 7 10 11 14 17 11 9 13 13 14 14 9 11 8 15 17 17 15 19 20 19 18 16 16 15 15 14 13 14 14 15 14 15 16 15 16 16 15 16 15 14 14 13 12
9 10 10 3 8 12 10 9 12 7 8 2 7 13 9 7 12 5 15 19 17 17 18 18 19 18 17 15 15 14 14 13 12 13 13 12 13 14 15 15 15 16 15 15 13 11 10 10 10
7 7 7 11 13 11 11 10 9 9 11 14 14 13 6 3 9 13 21 20 17 18 18 18 17 16 16 15 15 15 13 13 12 14 12 13 12 13 15 15 14 14 13 11 11 9 9 8 8
14 9 7 12 14 11 10 10 12 13 13 9 12 13 6 27 28 24 24 22 19 19 17 15 16 15 15 14 14 14 13 11 12 12 12 13 13 13 13 12 12 11 11 10 9 8 7 6 7
9 7 6 13 12 13 8 7 19 10 16 14 20 13 5 21 28 24 23 18 16 17 16 13 13 14 13 13 13 12 11 11 11 12 12 12 12 12 11 10 9 9 7 6 5 5 5 4 5
17 2 5 8 13 13 8 9 15 12 8 7 13 8 4 18 24 23 22 17 16 16 18 15 13 13 13 12 11 12 10 11 11 11 10 11 10 9 8 8 7 6 5 3 3 3 2 2 4
10 10 11 11 13 13 7 10 18 13 10 11 16 8 5 21 24 23 20 18 15 14 16 15 13 13 12 10 9 10 11 10 10 10 9 9 8 7 8 6 3 3 2 1 1 1 1 1 2
12 3 9 13 13 13 9 11 9 19 12 8 5 18 19 25 26 24 20 16 13 14 13 12 13 11 12 11 11 10 11 10 10 10 8 8 5 4 6 2 1 2 2 1 1 2 2 3 5
10 12 10 11 12 9 7 12 9 12 12 14 17 22 23 23 22 22 19 17 16 14 10 12 10 10 10 11 10 9 4 5 5 5 1 4 4 5 4 2 2 3 2 2 1 2 2 4 11
16 15 12 12 11 11 12 10 7 9 15 12 17 21 20 16 13 19 18 18 17 16 13 10 6 8 7 9 6 7 3 7 5 4 6 6 3 3 4 2 2 5 6 9 7 7 8 4 7
14 14 12 12 9 9 13 10 8 16 16 18 20 20 20 17 15 13 18 22 22 20 16 12 10 8 4 5 4 4 7 5 5 4 3 3 7 5 6 6 6 2 7 6 8 10 10 7 8
14 12 13 12 11 10 9 13 14 16 17 17 21 18 16 15 15 16 13 15 20 19 22 17 11 8 5 3 2 8 5 5 3 4 4 5 7 5 9 6 6 4 4 4 6 7 7 7 11
13 12 14 14 13 13 14 12 12 14 17 17 17 16 15 14 15 15 17 18 18 20 18 16 13 10 7 4 3 2 2 2 2 3 3 3 4 5 6 6 9 2 6 7 6 7 7 9 8
12 13 13 13 10 7 16 13 14 14 15 16 13 11 12 13 16 15 18 24 22 21 21 19 14 12 9 6 4 4 2 0 0 1 2 3 6 7 6 5 5 6 3 4 5 6 8 9 9
18 21 15 13 9 6 10 12 13 15 15 14 15 14 14 14 16 18 19 17 19 21 19 17 15 14 11 8 6 5 3 3 3 3 4 5 7 8 8 7 5 2 2 4 5 4 6 8 8
1 4 15 12 3 5 9 13 14 15 14 14 14 15 14 16 20 17 18 21 20 20 19 19 16 14 13 11 9 7 6 5 5 5 7 6 8 7 9 9 9 7 6 7 6 6 6 5 5
25 24 12 15 11 6 4 15 15 14 13 13 14 13 13 14 14 21 24 24 23 21 20 19 18 16 14 12 10 9 8 7 8 8 8 8 7 8 9 11 9 7 9 9 7 4 5 6 5
11 3 12 10 8 6 2 17 14 14 12 13 13 13 14 14 17 18 18 20 22 21 24 22 20 17 16 14 13 12 12 11 11 11 11 9 8 8 7 10 9 6 6 7 4 7 7 7 3
4 6 8 8 8 8 10 7 17 16 13 14 13 14 14 14 16 20 20 20 21 23 24 24 23 22 19 18 16 15 12 12 11 11 9 9 9 8 9 9 8 6 6 4 7 7 9 7 6
13 13 12 6 5 10 5 10 14 17 15 13 14 14 14 15 17 16 21 21 21 22 24 24 25 24 23 21 17 15 14 14 14 15 14 11 8 8 9 9 9 8 6 7 6 8 9 12 11
16 7 4 4 9 4 9 2 14 16 15 16 15 15 16 16 17 17 21 22 23 23 23 23 24 24 23 21 21 18 17 15 13 13 11 6 7 8 9 9 10 10 10 10 9 10 12 11 14
10 9 8 6 8 11 14 8 15 16 16 17 17 18 17 18 18 19 22 24 24 23 22 22 23 22 22 22 22 20 18 17 14 13 11 8 11 12 10 9 10 9 10 11 10 12 13 14 16
18 6 7 11 11 12 12 12 13 15 16 17 18 19 19 18 19 18 24 25 24 23 22 22 22 22 21 20 20 21 17 15 15 11 11 12 12 10 13 9 10 10 10 11 12 12 14 17 19
13 11 10 11 11 9 17 10 4 15 12 17 20 19 21 20 20 19 19 24 25 26 24 23 23 22 22 22 21 20 20 19 16 14 14 15 15 13 14 5 8 12 10 11 11 14 16 19 19
19 20 13 15 12 11 7 7 6 10 16 11 17 21 20 21 20 21 21 25 27 27 26 25 25 23 23 23 22 21 20 18 18 19 17 16 16 14 11 6 10 12 12 13 11 13 17 19 18
18 21 23 22 17 8 14 12 16 10 11 9 12 18 22 21 21 21 22 27 26 26 27 26 24 24 23 23 22 22 20 21 18 18 15 15 14 14 13 10 9 11 12 12 14 18 19 20 20
26 20 21 17 15 13 9 16 10 16 15 13 14 16 20 22 21 20 18 25 26 26 25 25 24 24 22 22 21 20 19 17 16 15 15 15 14 11 10 7 7 10 13 15 15 18 18 17 18
22 20 23 20 15 11 12 12 12 14 12 7 8 17 17 20 20 18 19 24 24 24 24 23 23 22 21 20 18 17 15 14 13 13 12 10 3 1 3 8 10 11 13 13 11 11 15 15 19
23 22 25 15 18 15 11 3 19 15 8 6 10 14 17 17 17 17 16 21 23 22 22 22 21 20 18 16 14 13 12 11 10 7 3 1 1 4 6 7 7 6 6 9 12 14 16 18 19
Wind_Direction
202 203 229 241 250 164 52 122 45 66 83 32 60 65 80 57 44 120 119 135 139 128 139 131 131 126 121 119 118 117 114 110 110 110 106 103 104 98 96 96 97 93 91 96 97 97 98 93 90
215 229 246 268 262 88 59 56 74 52 62 84 67 84 81 76 75 102 104 139 134 130 133 125 127 124 124 121 116 114 112 111 111 104 101 102 99 102 100 98 98 97 95 95 97 97 94 92 86
259 246 271 214 10 34 82 75 95 141 119 120 96 70 55 99 83 90 123 127 128 132 124 123 126 126 121 121 120 117 114 112 113 112 111 106 107 105 100 101 98 98 97 97 96 91 87 83 78
221 213 241 51 68 46 83 81 123 116 85 97 127 77 66 96 93 122 126 115 121 126 120 123 121 121 122 122 120 120 121 117 113 112 110 114 113 104 105 106 102 99 96 94 91 84 80 80 74
247 262 251 84 75 68 72 62 33 121 77 71 89 97 68 98 117 123 127 121 118 116 120 117 121 120 122 124 124 123 121 121 120 113 114 104 103 104 103 105 105 105 102 102 95 88 76 66 64
282 269 42 82 81 89 79 114 109 73 82 103 101 98 75 120 124 133 132 131 127 119 113 117 123 125 122 124 124 122 122 119 119 114 110 108 109 109 110 108 105 105 103 104 97 81 65 51 45
235 133 44 88 102 76 87 142 114 104 105 96 123 98 98 132 129 129 134 123 112 118 121 123 126 124 126 125 125 127 126 123 123 119 119 119 119 119 112 104 102 98 97 104 104 92 72 36 19
297 305 59 44 83 97 103 82 92 121 105 115 136 140 130 136 134 131 129 127 123 114 118 120 129 119 114 112 118 126 126 126 125 123 120 122 109 101 75 84 61 72 62 34 51 120 93 95 73
273 317 44 30 67 104 142 108 56 106 109 74 55 140 139 138 142 139 138 134 128 122 123 123 119 112 119 123 123 116 124 113 107 104 110 136 122 124 119 140 354 50 16 356 281 284 289 233 221
219 68 63 49 84 107 84 110 135 134 112 103 100 115 140 145 146 148 149 146 141 139 128 121 129 130 149 133 143 154 153 141 118 97 187 159 71 59 68 105 76 59 354 291 349 330 277 307 278
36 73 73 72 85 95 108 112 172 131 138 144 138 140 140 145 143 161 145 148 169 174 157 144 167 168 161 138 134 159 166 114 114 99 32 67 44 16 277 216 283 254 326 256 252 251 257 356 322
86 70 81 96 116 113 90 112 91 53 84 125 136 142 147 154 166 179 154 165 172 177 172 169 172 148 89 170 160 188 148 142 95 67 59 29 9 18 1 3 345 351 335 338 313 338 15 320 307
100 92 92 90 88 99 114 82 88 93 103 122 129 145 154 162 172 165 157 165 159 174 177 173 159 137 154 198 341 45 91 36 95 94 68 27 16 6 340 359 326 305 279 280 308 325 316 302 295
108 118 114 107 120 129 116 129 108 106 118 127 148 154 163 163 176 170 176 173 173 176 191 175 163 166 177 186 198 196 97 99 58 43 19 17 6 355 345 327 313 335 4 321 313 318 309 324 316
136 138 133 139 134 152 149 117 105 130 136 138 142 153 164 182 182 179 186 168 181 184 188 184 182 181 186 195 221 238 186 277 227 315 330 339 340 330 320 323 309 305 22 291 258 302 285 303 309
190 177 142 133 181 144 251 112 139 150 152 152 159 165 174 185 195 182 177 187 195 185 180 190 190 190 195 205 216 230 242 267 280 313 321 333 331 323 317 308 297 309 283 284 280 309 328 323 322
10 357 185 130 157 131 230 124 152 172 163 159 167 169 177 179 191 178 190 186 197 192 190 195 199 203 203 212 224 231 246 265 286 306 319 330 319 318 320 319 321 322 283 271 266 274 304 306 297
135 239 123 130 153 233 129 111 155 177 176 163 165 168 176 174 189 178 184 186 193 195 196 202 205 210 213 221 232 243 253 261 270 275 294 311 312 314 316 317 306 303 271 260 262 295 286 281 285
232 30 131 115 112 239 54 134 158 172 182 170 169 170 176 179 174 178 189 184 186 194 201 203 208 212 215 219 225 233 245 252 262 271 282 293 294 291 295 312 327 308 280 282 284 271 256 287 302
252 199 134 93 122 273 152 180 152 172 189 171 180 173 177 172 161 171 183 188 195 195 200 207 212 213 215 221 228 237 251 259 272 275 283 281 285 293 296 307 316 308 302 266 257 260 285 258 249
216 210 135 95 167 212 250 179 167 171 182 176 177 177 183 176 167 174 182 189 194 199 203 206 211 215 216 221 227 234 245 256 265 267 267 265 261 280 293 299 298 300 282 270 216 244 261 292 307
218 225 73 228 243 244 183 306 183 170 184 181 180 179 182 183 181 176 183 190 196 199 200 205 209 214 218 219 226 228 240 248 254 261 264 271 275 275 282 285 289 283 270 284 254 251 254 269 277
252 148 199 239 259 268 186 243 155 173 187 186 187 182 186 181 185 180 187 191 197 197 198 200 203 208 214 214 220 227 231 247 254 261 270 263 270 263 270 275 278 272 270 275 275 283 272 277 280
236 185 230 248 248 247 247 243 173 173 186 192 188 181 184 182 186 187 184 188 196 198 198 197 196 201 207 213 218 226 237 235 250 249 259 261 282 278 260 255 277 271 264 267 275 278 273 271 279
232 211 221 222 225 244 201 213 226 152 179 186 187 189 180 184 185 187 184 187 193 197 198 197 193 200 203 207 213 218 222 227 236 249 256 267 275 270 295 227 258 268 269 273 276 275 274 279 281
214 220 226 209 221 184 203 222 203 146 159 169 186 189 188 183 185 187 189 191 193 197 199 200 193 199 204 207 212 216 219 225 234 241 249 264 271 288 309 288 282 267 268 276 277 285 285 288 289
197 223 244 249 229 259 177 201 229 152 185 188 197 190 188 190 188 190 190 191 194 197 200 203 200 200 209 212 211 215 222 227 235 241 246 256 267 273 290 283 275 276 278 277 288 290 300 301 299
232 204 227 245 262 239 180 174 216 184 206 193 188 208 193 191 193 187 192 189 195 197 199 202 204 204 211 215 214 218 224 229 238 246 251 259 267 268 274 275 282 289 294 297 301 298 304 305 305
210 226 212 237 237 233 243 187 178 171 188 152 214 201 196 195 198 193 189 192 197 198 196 200 203 201 207 210 213 215 220 226 232 240 249 259 233 251 283 293 291 297 304 307 308 314 308 310 312
205 216 203 224 212 257 275 309 171 156 173 194 156 181 189 197 199 193 195 191 189 201 195 195 199 200 199 202 205 207 212 224 230 230 245 54 251 266 275 301 320 333 324 319 314 312 317 314 316